カタログに戻る

KUIPER-00593

運用中通信LEO
NORAD 69278·PAYLOAD·🇺🇸 United States

打ち上げ May 29, 2026 から Vandenberg Space Force Base

Loading…

次のパス (今後24時間)

TLE

最新Source: CelesTrak SupGP

元期: Sep 14, 2026, 19:37 UTC

1 69278C 26118M   26257.81781250  .00004395  00000+0  57530-3 0  2574
2 69278  51.8997 346.8284 0001755 149.1590 197.8135 14.79931623    15

AllMySatでKUIPER-00593をリアルタイム追跡

Download on the App Store